GTV034 MUHG-MUCM

Flight info

Callsign GTV034
Flight time 0h 45m
Altitude 8000
Route PIKTI1 ANETU DCT UCM
Aircraft K100/L-SBDGRY/S

Departure

Time 2026-04-24 12:27
Airport Frank Pais International Airport (MUHG)

Arrival

Time 2026-04-24 13:12
Airport Ignacio Agramonte International Airport (MUCM)
Time Latitude Longitude Altitude Speed Heading
2026-04-24 12:23 20.79144 -76.30449 389 ft 0 kts 205°
2026-04-24 12:23 20.79138 -76.30453 389 ft 5 kts 220°
2026-04-24 12:24 20.79091 -76.30519 388 ft 17 kts 234°
2026-04-24 12:24 20.78995 -76.30648 386 ft 26 kts 234°
2026-04-24 12:24 20.78944 -76.30840 388 ft 28 kts 273°
2026-04-24 12:24 20.78935 -76.31057 391 ft 30 kts 254°
2026-04-24 12:25 20.78806 -76.31230 392 ft 31 kts 224°
2026-04-24 12:25 20.78666 -76.31400 395 ft 22 kts 235°
2026-04-24 12:25 20.78621 -76.31433 394 ft 7 kts 45°
2026-04-24 12:25 20.78647 -76.31411 395 ft 0 kts 44°
2026-04-24 12:26 20.78735 -76.31315 394 ft 53 kts 46°
2026-04-24 12:26 20.79134 -76.30873 390 ft 106 kts 45°
2026-04-24 12:27 20.79693 -76.30329 725 ft 107 kts 43°
2026-04-24 12:27 20.80293 -76.29793 1006 ft 119 kts 39°
2026-04-24 12:27 20.81066 -76.29366 1246 ft 134 kts 12°
2026-04-24 12:27 20.82008 -76.29589 1492 ft 150 kts 329°
2026-04-24 12:28 20.82876 -76.30239 1796 ft 153 kts 326°
2026-04-24 12:28 20.83789 -76.30873 2035 ft 160 kts 329°
2026-04-24 12:28 20.84768 -76.31469 2245 ft 162 kts 333°
2026-04-24 12:28 20.85764 -76.32050 2505 ft 164 kts 335°
2026-04-24 12:29 20.86805 -76.32566 2729 ft 166 kts 335°
2026-04-24 12:29 20.87837 -76.33125 2949 ft 167 kts 332°
2026-04-24 12:29 20.88849 -76.33735 3179 ft 167 kts 331°
2026-04-24 12:29 20.89860 -76.34350 3394 ft 167 kts 331°
2026-04-24 12:30 20.90874 -76.34967 3608 ft 167 kts 330°
2026-04-24 12:30 20.91880 -76.35579 3827 ft 166 kts 331°
2026-04-24 12:30 20.92885 -76.36188 4045 ft 166 kts 330°
2026-04-24 12:30 20.93874 -76.36790 4267 ft 165 kts 330°
2026-04-24 12:31 20.94879 -76.37400 4435 ft 168 kts 330°
2026-04-24 12:31 20.95903 -76.38022 4562 ft 170 kts 330°
2026-04-24 12:31 20.96931 -76.38647 4681 ft 171 kts 330°
2026-04-24 12:31 20.97964 -76.39275 4805 ft 171 kts 330°
2026-04-24 12:32 20.99000 -76.39906 4924 ft 170 kts 330°
2026-04-24 12:32 20.99991 -76.40590 5043 ft 170 kts 316°
2026-04-24 12:32 21.00631 -76.41632 5167 ft 168 kts 290°
2026-04-24 12:32 21.00827 -76.42859 5291 ft 167 kts 273°
2026-04-24 12:33 21.00915 -76.44101 5413 ft 168 kts 274°
2026-04-24 12:33 21.01016 -76.45351 5537 ft 168 kts 274°
2026-04-24 12:33 21.01110 -76.46599 5657 ft 168 kts 274°
2026-04-24 12:33 21.01202 -76.47851 5781 ft 168 kts 274°
2026-04-24 12:34 21.01293 -76.49078 5902 ft 167 kts 274°
2026-04-24 12:34 21.01386 -76.50317 6027 ft 167 kts 274°
2026-04-24 12:34 21.01478 -76.51559 6151 ft 167 kts 274°
2026-04-24 12:34 21.01569 -76.52796 6277 ft 167 kts 274°
2026-04-24 12:35 21.01661 -76.54034 6398 ft 166 kts 274°
2026-04-24 12:35 21.01752 -76.55270 6519 ft 166 kts 274°
2026-04-24 12:35 21.01843 -76.56499 6636 ft 166 kts 274°
2026-04-24 12:35 21.01933 -76.57728 6757 ft 165 kts 274°
2026-04-24 12:36 21.02023 -76.58952 6866 ft 165 kts 274°
2026-04-24 12:36 21.02113 -76.60160 6980 ft 165 kts 274°
2026-04-24 12:36 21.02203 -76.61381 7103 ft 164 kts 274°
2026-04-24 12:36 21.02293 -76.62599 7224 ft 164 kts 274°
2026-04-24 12:37 21.02383 -76.63819 7342 ft 164 kts 274°
2026-04-24 12:37 21.02472 -76.65033 7466 ft 164 kts 274°
2026-04-24 12:37 21.02561 -76.66249 7579 ft 163 kts 273°
2026-04-24 12:37 21.02649 -76.67460 7700 ft 163 kts 273°
2026-04-24 12:38 21.02738 -76.68667 7821 ft 163 kts 273°
2026-04-24 12:38 21.02796 -76.69466 7905 ft 163 kts 273°
2026-04-24 12:38 21.02914 -76.71076 7995 ft 166 kts 273°
2026-04-24 12:39 21.03159 -76.74435 7994 ft 172 kts 273°
2026-04-24 12:39 21.03252 -76.75710 7996 ft 172 kts 273°
2026-04-24 12:39 21.03347 -76.77009 7996 ft 173 kts 273°
2026-04-24 12:40 21.03629 -76.78234 7999 ft 174 kts 294°
2026-04-24 12:40 21.04272 -76.79339 7993 ft 175 kts 301°
2026-04-24 12:40 21.04924 -76.80437 8002 ft 175 kts 300°
2026-04-24 12:40 21.05574 -76.81540 7997 ft 175 kts 300°
2026-04-24 12:41 21.06228 -76.82642 8002 ft 175 kts 301°
2026-04-24 12:41 21.06886 -76.83749 8004 ft 176 kts 300°
2026-04-24 12:41 21.07547 -76.84862 8000 ft 177 kts 301°
2026-04-24 12:41 21.08211 -76.85979 8006 ft 178 kts 300°
2026-04-24 12:42 21.08867 -76.87085 8006 ft 178 kts 300°
2026-04-24 12:42 21.09533 -76.88208 8006 ft 179 kts 301°
2026-04-24 12:42 21.10199 -76.89332 8005 ft 178 kts 301°
2026-04-24 12:42 21.10865 -76.90452 8006 ft 178 kts 300°
2026-04-24 12:43 21.11531 -76.91575 8005 ft 178 kts 300°
2026-04-24 12:43 21.12196 -76.92698 8006 ft 178 kts 300°
2026-04-24 12:43 21.12860 -76.93817 8007 ft 178 kts 300°
2026-04-24 12:43 21.13524 -76.94936 8006 ft 178 kts 300°
2026-04-24 12:44 21.14190 -76.96060 8009 ft 178 kts 300°
2026-04-24 12:44 21.14855 -76.97182 8008 ft 179 kts 300°
2026-04-24 12:44 21.15522 -76.98308 8008 ft 179 kts 300°
2026-04-24 12:44 21.16188 -76.99431 8008 ft 179 kts 300°
2026-04-24 12:45 21.16847 -77.00544 8008 ft 179 kts 301°
2026-04-24 12:45 21.17513 -77.01670 8009 ft 179 kts 301°
2026-04-24 12:45 21.18180 -77.02797 8008 ft 179 kts 301°
2026-04-24 12:45 21.18846 -77.03921 8010 ft 179 kts 301°
2026-04-24 12:46 21.19511 -77.05046 8008 ft 179 kts 301°
2026-04-24 12:46 21.20177 -77.06172 8007 ft 178 kts 300°
2026-04-24 12:46 21.20842 -77.07296 8008 ft 178 kts 300°
2026-04-24 12:46 21.21507 -77.08422 8007 ft 178 kts 301°
2026-04-24 12:47 21.22171 -77.09545 8007 ft 178 kts 300°
2026-04-24 12:47 21.22835 -77.10667 8009 ft 178 kts 301°
2026-04-24 12:47 21.23493 -77.11778 8010 ft 178 kts 301°
2026-04-24 12:47 21.24157 -77.12902 8008 ft 178 kts 301°
2026-04-24 12:48 21.24816 -77.14029 8008 ft 178 kts 298°
2026-04-24 12:48 21.25208 -77.15272 8009 ft 176 kts 280°
2026-04-24 12:48 21.25475 -77.16555 8010 ft 176 kts 282°
2026-04-24 12:48 21.25764 -77.17837 8007 ft 177 kts 282°
2026-04-24 12:49 21.26044 -77.19123 8008 ft 177 kts 282°
2026-04-24 12:49 21.26323 -77.20408 8009 ft 176 kts 282°
2026-04-24 12:49 21.26602 -77.21690 7999 ft 177 kts 282°
2026-04-24 12:49 21.26880 -77.22971 8003 ft 176 kts 282°
2026-04-24 12:50 21.27159 -77.24256 8007 ft 177 kts 282°
2026-04-24 12:50 21.27437 -77.25537 8009 ft 176 kts 282°
2026-04-24 12:50 21.27713 -77.26805 8000 ft 177 kts 282°
2026-04-24 12:50 21.27992 -77.28088 8011 ft 177 kts 282°
2026-04-24 12:51 21.28271 -77.29374 8014 ft 177 kts 282°
2026-04-24 12:51 21.28550 -77.30659 8008 ft 177 kts 282°
2026-04-24 12:51 21.28829 -77.31944 8012 ft 177 kts 282°
2026-04-24 12:51 21.29107 -77.33229 8003 ft 177 kts 282°
2026-04-24 12:52 21.29386 -77.34514 8015 ft 177 kts 282°
2026-04-24 12:52 21.29666 -77.35807 8013 ft 178 kts 282°
2026-04-24 12:52 21.29942 -77.37080 8004 ft 177 kts 282°
2026-04-24 12:52 21.30220 -77.38364 8007 ft 177 kts 282°
2026-04-24 12:53 21.30503 -77.39667 8013 ft 177 kts 282°
2026-04-24 12:53 21.30777 -77.40936 8014 ft 177 kts 282°
2026-04-24 12:53 21.31054 -77.42223 8012 ft 177 kts 282°
2026-04-24 12:53 21.31332 -77.43509 8012 ft 177 kts 282°
2026-04-24 12:54 21.31610 -77.44795 8012 ft 177 kts 282°
2026-04-24 12:54 21.31888 -77.46083 8013 ft 177 kts 281°
2026-04-24 12:54 21.32164 -77.47367 8010 ft 177 kts 282°
2026-04-24 12:54 21.32443 -77.48659 8013 ft 178 kts 282°
2026-04-24 12:55 21.32722 -77.49953 8013 ft 178 kts 281°
2026-04-24 12:55 21.33001 -77.51246 8013 ft 178 kts 281°
2026-04-24 12:55 21.33280 -77.52543 8011 ft 178 kts 281°
2026-04-24 12:55 21.33374 -77.52979 8007 ft 178 kts 281°
2026-04-24 12:56 21.33459 -77.53375 8007 ft 178 kts 281°
2026-04-24 12:56 21.33738 -77.54669 8012 ft 178 kts 282°
2026-04-24 12:56 21.34013 -77.55946 8011 ft 178 kts 281°
2026-04-24 12:56 21.34290 -77.57236 8010 ft 178 kts 281°
2026-04-24 12:57 21.34568 -77.58528 8010 ft 177 kts 281°
2026-04-24 12:57 21.34845 -77.59817 8011 ft 177 kts 281°
2026-04-24 12:57 21.35122 -77.61104 8010 ft 177 kts 282°
2026-04-24 12:57 21.35399 -77.62391 8004 ft 177 kts 281°
2026-04-24 12:58 21.35675 -77.63675 8005 ft 176 kts 281°
2026-04-24 12:58 21.35950 -77.64959 8001 ft 176 kts 281°
2026-04-24 12:58 21.36225 -77.66242 8009 ft 176 kts 281°
2026-04-24 12:58 21.36501 -77.67526 8006 ft 176 kts 281°
2026-04-24 12:59 21.36776 -77.68808 8007 ft 176 kts 281°
2026-04-24 12:59 21.37050 -77.70088 8004 ft 176 kts 281°
2026-04-24 12:59 21.37322 -77.71356 8003 ft 177 kts 281°
2026-04-24 12:59 21.37597 -77.72639 8005 ft 176 kts 281°
2026-04-24 13:00 21.37871 -77.73920 8004 ft 176 kts 281°
2026-04-24 13:00 21.38145 -77.75200 8003 ft 176 kts 281°
2026-04-24 13:00 21.38421 -77.76485 8000 ft 176 kts 281°
2026-04-24 13:00 21.38695 -77.77767 7999 ft 176 kts 281°
2026-04-24 13:01 21.38968 -77.79046 7999 ft 174 kts 281°
2026-04-24 13:01 21.39237 -77.80311 7920 ft 175 kts 281°
2026-04-24 13:01 21.39518 -77.81598 7774 ft 179 kts 282°
2026-04-24 13:01 21.39813 -77.82898 7624 ft 179 kts 282°
2026-04-24 13:02 21.40103 -77.84179 7482 ft 179 kts 282°
2026-04-24 13:02 21.40395 -77.85482 7282 ft 180 kts 282°
2026-04-24 13:02 21.40690 -77.86792 7048 ft 180 kts 282°
2026-04-24 13:02 21.40972 -77.88088 6813 ft 178 kts 279°
2026-04-24 13:03 21.41195 -77.89395 6573 ft 178 kts 279°
2026-04-24 13:03 21.41448 -77.90690 6336 ft 177 kts 280°
2026-04-24 13:03 21.41727 -77.91981 6090 ft 176 kts 282°
2026-04-24 13:03 21.41999 -77.93261 5841 ft 175 kts 282°
2026-04-24 13:04 21.42269 -77.94529 5590 ft 174 kts 282°
2026-04-24 13:04 21.42538 -77.95796 5346 ft 173 kts 282°
2026-04-24 13:04 21.42807 -77.97054 5106 ft 173 kts 283°
2026-04-24 13:04 21.43072 -77.98302 4864 ft 174 kts 283°
2026-04-24 13:05 21.43343 -77.99575 4617 ft 176 kts 283°
2026-04-24 13:05 21.43614 -78.00865 4370 ft 177 kts 281°
2026-04-24 13:05 21.43611 -78.02174 4128 ft 178 kts 256°
2026-04-24 13:05 21.43084 -78.03373 3885 ft 178 kts 230°
2026-04-24 13:06 21.42145 -78.04220 3651 ft 177 kts 206°
2026-04-24 13:06 21.40970 -78.04572 3420 ft 176 kts 180°
2026-04-24 13:06 21.39778 -78.04372 3198 ft 174 kts 157°
2026-04-24 13:06 21.38668 -78.03887 2941 ft 171 kts 156°
2026-04-24 13:07 21.37606 -78.03346 2719 ft 168 kts 142°
2026-04-24 13:07 21.36825 -78.02449 2457 ft 166 kts 120°
2026-04-24 13:07 21.36416 -78.01312 2212 ft 163 kts 100°
2026-04-24 13:07 21.36423 -78.00112 2035 ft 160 kts 79°
2026-04-24 13:08 21.36790 -77.99002 2021 ft 156 kts 70°
2026-04-24 13:08 21.37183 -77.97921 2024 ft 155 kts 71°
2026-04-24 13:08 21.37577 -77.96845 2032 ft 154 kts 71°
2026-04-24 13:09 21.38360 -77.94705 2020 ft 142 kts 70°
2026-04-24 13:09 21.38713 -77.93762 1929 ft 132 kts 71°
2026-04-24 13:09 21.39039 -77.92872 1776 ft 125 kts 72°
2026-04-24 13:09 21.39334 -77.92063 1574 ft 108 kts 71°
2026-04-24 13:10 21.39597 -77.91358 1382 ft 98 kts 72°
2026-04-24 13:10 21.39841 -77.90705 1264 ft 95 kts 66°
2026-04-24 13:10 21.40084 -77.90053 1159 ft 94 kts 70°
2026-04-24 13:10 21.40289 -77.89457 974 ft 83 kts 72°
2026-04-24 13:11 21.40524 -77.88861 878 ft 88 kts 69°
2026-04-24 13:11 21.40758 -77.88257 822 ft 87 kts 71°
2026-04-24 13:11 21.40967 -77.87654 798 ft 87 kts 71°
2026-04-24 13:11 21.41191 -77.87046 677 ft 90 kts 70°
2026-04-24 13:12 21.41425 -77.86409 508 ft 92 kts 69°
2026-04-24 13:12 21.41647 -77.85799 411 ft 80 kts 70°
2026-04-24 13:12 21.41816 -77.85344 407 ft 54 kts 72°
2026-04-24 13:12 21.41917 -77.85047 405 ft 29 kts 73°
2026-04-24 13:13 21.41966 -77.84912 405 ft 9 kts
2026-04-24 13:13 21.41943 -77.84984 405 ft 15 kts 244°
2026-04-24 13:13 21.41897 -77.85104 405 ft 18 kts 251°
2026-04-24 13:13 21.41854 -77.85233 405 ft 18 kts 250°
2026-04-24 13:14 21.41857 -77.85334 407 ft 11 kts 319°
2026-04-24 13:14 21.41936 -77.85330 406 ft 12 kts 16°
2026-04-24 13:14 21.42011 -77.85302 405 ft 9 kts 38°
2026-04-24 13:14 21.42040 -77.85245 405 ft 9 kts 67°
2026-04-24 13:15 21.42054 -77.85210 405 ft 2 kts 69°
2026-04-24 13:15 21.42055 -77.85207 405 ft 0 kts 69°